• In Lithuania
  • List of Countries
  • For 7 days
  • Water Temperature
  • Satellite Maps
  • Weather Map
  • Weather Widgets
  • user-avatar
    Login

    Hourly Weather Diphu

    Today, 25 September, Tuesday

    Time Temperature Precipitation Wind Pressure Humidity
    00:00 +26°C° 0 mm 1 mps 741 mmHg 96%
    01:00 +24°C° 0.6 mm 0 mps 740 mmHg 96%
    02:00 +23°C° 0.6 mm 0 mps 740 mmHg 96%
    03:00 +23°C° 0.6 mm 0 mps 740 mmHg 96%
    04:00 +23°C° 0.2 mm 0 mps 740 mmHg 95%
    05:00 +23°C° 0.2 mm 0 mps 740 mmHg 95%
    06:00 +25°C° 0 mm 1 mps 740 mmHg 95%
    07:00 +27°C° 0.4 mm 1 mps 740 mmHg 91%
    08:00 +29°C° 0.4 mm 1 mps 740 mmHg 87%
    09:00 +30°C° 0.4 mm 1 mps 741 mmHg 82%
    10:00 +31°C° 0.9 mm 1 mps 740 mmHg 80%
    11:00 +32°C° 0.9 mm 1 mps 740 mmHg 78%
    12:00 +32°C° 0.9 mm 1 mps 740 mmHg 75%
    13:00 +32°C° 1.1 mm 1 mps 739 mmHg 76%
    14:00 +32°C° 1.1 mm 1 mps 738 mmHg 76%
    15:00 +32°C° 1.1 mm 1 mps 738 mmHg 77%
    16:00 +31°C° 0.9 mm 1 mps 738 mmHg 82%
    17:00 +27°C° 0.9 mm 0 mps 737 mmHg 87%
    18:00 +26°C° 0.9 mm 0 mps 737 mmHg 92%
    19:00 +25°C° 0.3 mm 0 mps 738 mmHg 92%
    20:00 +25°C° 0.3 mm 0 mps 738 mmHg 92%
    21:00 +27°C° 0.3 mm 1 mps 739 mmHg 93%
    22:00 +26°C° 0.2 mm 1 mps 739 mmHg 93%
    23:00 +26°C° 0.2 mm 1 mps 739 mmHg 93%

    Tomorrow, 26 September, Wednesday

    Time Temperature Precipitation Wind Pressure Humidity
    00:00 +26°C° 0.2 mm 1 mps 739 mmHg 94%
    01:00 +26°C° 0.4 mm 1 mps 739 mmHg 94%
    02:00 +26°C° 0.4 mm 1 mps 739 mmHg 94%
    03:00 +25°C° 0.4 mm 1 mps 738 mmHg 95%
    04:00 +25°C° 0.3 mm 1 mps 739 mmHg 95%
    05:00 +25°C° 0.3 mm 1 mps 739 mmHg 95%
    06:00 +25°C° 0.3 mm 1 mps 739 mmHg 94%
    07:00 +25°C° 0.2 mm 0 mps 740 mmHg 87%
    08:00 +27°C° 0.2 mm 0 mps 740 mmHg 80%
    09:00 +30°C° 0.2 mm 0 mps 741 mmHg 73%
    10:00 +32°C° 0.8 mm 1 mps 740 mmHg 72%
    11:00 +33°C° 0.8 mm 1 mps 740 mmHg 72%
    12:00 +34°C° 0.8 mm 1 mps 739 mmHg 72%
    13:00 +33°C° 1.3 mm 1 mps 739 mmHg 75%
    14:00 +33°C° 1.3 mm 1 mps 738 mmHg 78%
    15:00 +32°C° 1.3 mm 1 mps 737 mmHg 82%
    16:00 +31°C° 1.2 mm 1 mps 738 mmHg 85%
    17:00 +27°C° 1.2 mm 0 mps 738 mmHg 89%
    18:00 +26°C° 1.2 mm 0 mps 738 mmHg 93%
    19:00 +25°C° 0.5 mm 0 mps 738 mmHg 93%
    20:00 +25°C° 0.5 mm 0 mps 739 mmHg 94%
    21:00 +25°C° 0.5 mm 0 mps 740 mmHg 94%
    22:00 +24°C° 0.3 mm 0 mps 740 mmHg 95%
    23:00 +24°C° 0.3 mm 0 mps 740 mmHg 95%

    Day after tomorrow, 27 September, Thursday

    Time Temperature Precipitation Wind Pressure Humidity
    00:00 +24°C° 0.3 mm 0 mps 740 mmHg 95%
    01:00 +24°C° 0.4 mm 0 mps 739 mmHg 95%
    02:00 +23°C° 0.4 mm 0 mps 739 mmHg 95%
    03:00 +23°C° 0.4 mm 0 mps 739 mmHg 95%
    04:00 +23°C° 0.1 mm 0 mps 739 mmHg 95%
    05:00 +23°C° 0.1 mm 0 mps 740 mmHg 95%
    06:00 +23°C° 0.1 mm 0 mps 740 mmHg 94%
    07:00 +25°C° 0.1 mm 0 mps 740 mmHg 86%
    08:00 +28°C° 0.1 mm 0 mps 741 mmHg 77%
    09:00 +30°C° 0.1 mm 0 mps 741 mmHg 68%
    10:00 +33°C° 0.5 mm 1 mps 741 mmHg 67%
    11:00 +34°C° 0.5 mm 1 mps 740 mmHg 65%
    12:00 +35°C° 0.5 mm 1 mps 740 mmHg 63%
    13:00 +34°C° 1 mm 1 mps 739 mmHg 68%
    14:00 +33°C° 1 mm 1 mps 738 mmHg 73%
    15:00 +33°C° 1 mm 1 mps 737 mmHg 78%
    16:00 +31°C° 0.8 mm 1 mps 738 mmHg 82%
    17:00 +27°C° 0.8 mm 0 mps 738 mmHg 87%
    18:00 +26°C° 0.8 mm 0 mps 738 mmHg 92%
    19:00 +25°C° 0.4 mm 0 mps 739 mmHg 93%
    20:00 +25°C° 0.4 mm 0 mps 739 mmHg 93%
    21:00 +25°C° 0.4 mm 0 mps 740 mmHg 94%
    22:00 +24°C° 0.3 mm 0 mps 740 mmHg 94%
    23:00 +24°C° 0.3 mm 0 mps 740 mmHg 95%

    28 September, Friday

    Time Temperature Precipitation Wind Pressure Humidity
    00:00 +26°C° 0.3 mm 1 mps 740 mmHg 95%
    01:00 +26°C° 0.2 mm 1 mps 739 mmHg 95%
    02:00 +26°C° 0.2 mm 1 mps 739 mmHg 95%
    03:00 +25°C° 0.2 mm 1 mps 739 mmHg 94%
    04:00 +25°C° 0 mm 1 mps 739 mmHg 94%
    05:00 +25°C° 0 mm 1 mps 740 mmHg 93%
    06:00 +23°C° 0 mm 0 mps 740 mmHg 93%
    07:00 +27°C° 0.1 mm 1 mps 740 mmHg 86%
    08:00 +29°C° 0.1 mm 1 mps 741 mmHg 78%
    09:00 +32°C° 0.1 mm 1 mps 741 mmHg 71%
    10:00 +33°C° 0.1 mm 1 mps 741 mmHg 66%
    11:00 +34°C° 0.1 mm 1 mps 741 mmHg 60%
    12:00 +35°C° 0.1 mm 1 mps 740 mmHg 55%
    13:00 +35°C° 0.3 mm 1 mps 739 mmHg 57%
    14:00 +35°C° 0.3 mm 1 mps 739 mmHg 59%
    15:00 +34°C° 0.3 mm 1 mps 738 mmHg 61%
    16:00 +32°C° 0.2 mm 1 mps 738 mmHg 69%
    17:00 +30°C° 0.2 mm 1 mps 738 mmHg 77%
    18:00 +26°C° 0.2 mm 0 mps 739 mmHg 86%
    19:00 +26°C° 0.1 mm 0 mps 739 mmHg 87%
    20:00 +26°C° 0.1 mm 0 mps 740 mmHg 89%
    21:00 +25°C° 0.1 mm 0 mps 740 mmHg 90%
    22:00 +25°C° 0.2 mm 0 mps 740 mmHg 91%
    23:00 +25°C° 0.2 mm 0 mps 740 mmHg 91%

    29 September, Saturday

    Time Temperature Precipitation Wind Pressure Humidity
    00:00 +24°C° 0.2 mm 0 mps 740 mmHg 92%
    01:00 +24°C° 0.2 mm 0 mps 740 mmHg 92%
    02:00 +24°C° 0.2 mm 0 mps 739 mmHg 92%
    03:00 +24°C° 0.2 mm 0 mps 739 mmHg 93%
    04:00 +24°C° 0.1 mm 0 mps 740 mmHg 92%
    05:00 +24°C° 0.1 mm 0 mps 740 mmHg 92%
    06:00 +24°C° 0.1 mm 0 mps 740 mmHg 91%
    07:00 +26°C° 0.1 mm 0 mps 741 mmHg 84%
    08:00 +28°C° 0.1 mm 0 mps 741 mmHg 77%
    09:00 +30°C° 0.1 mm 0 mps 742 mmHg 70%
    10:00 +31°C° 0.1 mm 0 mps 741 mmHg 65%
    11:00 +34°C° 0.1 mm 1 mps 740 mmHg 60%
    12:00 +35°C° 0.1 mm 1 mps 740 mmHg 55%
    13:00 +35°C° 0.1 mm 1 mps 739 mmHg 56%
    14:00 +35°C° 0.1 mm 1 mps 738 mmHg 57%
    15:00 +34°C° 0.1 mm 1 mps 738 mmHg 58%
    16:00 +32°C° 0.2 mm 1 mps 738 mmHg 67%
    17:00 +29°C° 0.2 mm 0 mps 738 mmHg 75%
    18:00 +27°C° 0.2 mm 0 mps 738 mmHg 83%
    19:00 +26°C° 0.1 mm 0 mps 739 mmHg 85%
    20:00 +26°C° 0.1 mm 0 mps 739 mmHg 87%
    21:00 +25°C° 0.1 mm 0 mps 740 mmHg 89%
    22:00 +25°C° 0.4 mm 0 mps 740 mmHg 90%
    23:00 +25°C° 0.4 mm 0 mps 740 mmHg 90%

    30 September, Sunday

    Time Temperature Precipitation Wind Pressure Humidity
    00:00 +24°C° 0.4 mm 0 mps 740 mmHg 91%
    01:00 +24°C° 0.3 mm 0 mps 739 mmHg 91%
    02:00 +24°C° 0.3 mm 0 mps 739 mmHg 92%
    03:00 +24°C° 0.3 mm 0 mps 739 mmHg 92%
    04:00 +24°C° 0.1 mm 0 mps 739 mmHg 92%
    05:00 +24°C° 0.1 mm 0 mps 740 mmHg 91%
    06:00 +24°C° 0.1 mm 0 mps 740 mmHg 91%
    07:00 +26°C° 0.1 mm 0 mps 740 mmHg 85%
    08:00 +28°C° 0.1 mm 0 mps 741 mmHg 79%
    09:00 +29°C° 0.1 mm 0 mps 741 mmHg 73%
    10:00 +30°C° 0.3 mm 0 mps 741 mmHg 67%
    11:00 +34°C° 0.3 mm 1 mps 740 mmHg 62%
    12:00 +35°C° 0.3 mm 1 mps 739 mmHg 57%
    13:00 +35°C° 0.2 mm 1 mps 739 mmHg 59%
    14:00 +34°C° 0.2 mm 1 mps 738 mmHg 60%
    15:00 +34°C° 0.2 mm 1 mps 737 mmHg 62%
    16:00 +32°C° 0.4 mm 1 mps 738 mmHg 70%
    17:00 +28°C° 0.4 mm 0 mps 738 mmHg 78%
    18:00 +26°C° 0.4 mm 0 mps 738 mmHg 85%
    19:00 +26°C° 0.2 mm 0 mps 738 mmHg 87%
    20:00 +25°C° 0.2 mm 0 mps 739 mmHg 89%
    21:00 +25°C° 0.2 mm 0 mps 740 mmHg 90%
    22:00 +24°C° 0.4 mm 0 mps 739 mmHg 92%
    23:00 +24°C° 0.4 mm 0 mps 739 mmHg 93%
    Show more